"read_dt","SO2 (ppb)","flags","PMT voltage (V)","lamp voltage (V)","lamp intensity (Hz)","internal temp (C)","react chamber temp (C)","sample flow (l/min)","pres (mmHg)","SO2 bkg (ppb)","SO2 coefficient"
2016-10-15 00:00:00,1600E-3,5C000000,-0724,0826,12147,027.8,045.5,0.455,746.2,01.17,0.508
2016-10-15 00:01:00,1597E-3,5C000000,-0724,0826,12283,027.8,045.5,0.455,746.2,01.17,0.508
2016-10-15 00:02:00,1624E-3,5C000000,-0724,0826,12236,027.8,045.5,0.455,746.2,01.17,0.508
2016-10-15 00:03:00,1633E-3,5C000000,-0724,0826,12236,027.8,045.5,0.455,746.2,01.17,0.508
2016-10-15 00:04:00,1732E-3,5C000000,-0724,0827,12173,027.8,045.4,0.455,746.2,01.17,0.508
2016-10-15 00:05:00,1587E-3,5C000000,-0724,0826,12275,027.8,045.5,0.455,746.2,01.17,0.508
2016-10-15 00:06:00,1645E-3,5C000000,-0724,0826,12258,027.8,045.5,0.455,746.2,01.17,0.508
2016-10-15 00:07:00,1612E-3,5C000000,-0724,0827,12333,027.8,045.5,0.455,746.2,01.17,0.508
2016-10-15 00:08:00,1562E-3,5C000000,-0724,0826,12227,027.8,045.5,0.455,746.2,01.17,0.508
2016-10-15 00:09:00,1630E-3,5C000000,-0724,0826,12213,027.8,045.5,0.456,746.2,01.17,0.508
2016-10-15 00:10:00,1626E-3,5C000000,-0724,0825,12270,027.8,045.5,0.455,746.2,01.17,0.508
2016-10-15 00:11:00,1653E-3,5C000000,-0724,0826,12193,027.8,045.5,0.455,746.2,01.17,0.508
2016-10-15 00:12:00,1671E-3,5C000000,-0724,0826,12376,027.9,045.5,0.455,746.2,01.17,0.508
2016-10-15 00:13:00,1637E-3,5C000000,-0724,0826,12371,027.8,045.4,0.455,746.2,01.17,0.508
2016-10-15 00:14:00,1599E-3,5C000000,-0724,0826,12248,027.9,045.5,0.455,746.2,01.17,0.508
2016-10-15 00:15:00,1634E-3,5C000000,-0724,0826,12111,027.8,045.5,0.455,746.2,01.17,0.508
2016-10-15 00:16:00,1512E-3,5C000000,-0724,0826,12175,027.8,045.5,0.456,746.2,01.17,0.508
2016-10-15 00:17:00,1575E-3,5C000000,-0724,0826,12217,027.9,045.5,0.455,746.2,01.17,0.508
2016-10-15 00:18:00,1523E-3,5C000000,-0724,0825,12141,027.8,045.5,0.455,746.2,01.17,0.508
2016-10-15 00:19:00,1567E-3,5C000000,-0724,0826,12113,027.9,045.5,0.455,746.2,01.17,0.508
2016-10-15 00:20:00,1486E-3,5C000000,-0724,0826,12241,027.8,045.5,0.455,746.2,01.17,0.508
2016-10-15 00:21:00,1604E-3,5C000000,-0724,0826,12374,027.9,045.5,0.456,746.2,01.17,0.508
2016-10-15 00:22:00,1600E-3,5C000000,-0724,0826,12276,027.9,045.4,0.455,746.2,01.17,0.508
2016-10-15 00:23:00,1676E-3,5C000000,-0724,0826,12330,027.9,045.5,0.455,746.2,01.17,0.508
2016-10-15 00:24:00,1671E-3,5C000000,-0724,0825,12397,027.9,045.5,0.455,746.2,01.17,0.508
2016-10-15 00:25:00,1682E-3,5C000000,-0724,0825,12232,027.9,045.5,0.455,746.1,01.17,0.508
2016-10-15 00:26:00,1569E-3,5C000000,-0724,0826,12186,027.9,045.5,0.455,746.2,01.17,0.508
2016-10-15 00:27:00,1709E-3,5C000000,-0724,0825,12263,027.9,045.4,0.455,746.2,01.17,0.508
2016-10-15 00:28:00,1596E-3,5C000000,-0724,0825,12184,027.9,045.5,0.455,746.1,01.17,0.508
2016-10-15 00:29:00,1649E-3,5C000000,-0724,0826,12172,027.9,045.5,0.455,746.1,01.17,0.508
2016-10-15 00:30:00,1592E-3,5C000000,-0724,0825,12108,027.9,045.5,0.455,746.1,01.17,0.508
2016-10-15 00:31:00,1544E-3,5C000000,-0724,0826,12128,027.9,045.5,0.455,746.1,01.17,0.508
2016-10-15 00:32:00,1526E-3,5C000000,-0724,0826,12302,027.9,045.5,0.455,746.1,01.17,0.508
2016-10-15 00:33:00,1512E-3,5C000000,-0724,0825,12296,027.9,045.5,0.455,746.1,01.17,0.508
2016-10-15 00:34:00,1454E-3,5C000000,-0724,0826,12202,027.9,045.5,0.455,746.1,01.17,0.508
2016-10-15 00:35:00,1504E-3,5C000000,-0724,0826,12346,027.9,045.5,0.455,746.1,01.17,0.508
2016-10-15 00:36:00,1465E-3,5C000000,-0724,0827,12342,027.9,045.5,0.455,746.1,01.17,0.508
2016-10-15 00:37:00,1623E-3,5C000000,-0724,0826,12201,027.9,045.5,0.455,746.1,01.17,0.508
2016-10-15 00:38:00,1494E-3,5C000000,-0724,0826,12161,027.9,045.5,0.455,746.1,01.17,0.508
2016-10-15 00:39:00,1672E-3,5C000000,-0724,0826,12223,027.9,045.5,0.455,746.1,01.17,0.508
2016-10-15 00:40:00,1645E-3,5C000000,-0724,0826,12239,027.9,045.5,0.456,746.1,01.17,0.508
2016-10-15 00:41:00,1784E-3,5C000000,-0724,0827,12316,027.9,045.5,0.455,746.1,01.17,0.508
2016-10-15 00:42:00,1483E-3,5C000000,-0724,0826,12211,027.9,045.5,0.455,746.1,01.17,0.508
2016-10-15 00:43:00,1583E-3,5C000000,-0724,0825,12067,027.9,045.5,0.455,746.1,01.17,0.508
2016-10-15 00:44:00,1658E-3,5C000000,-0724,0826,12234,027.9,045.5,0.455,746.1,01.17,0.508
2016-10-15 00:45:00,1486E-3,5C000000,-0724,0826,12291,027.9,045.5,0.456,746.1,01.17,0.508
2016-10-15 00:46:00,1603E-3,5C000000,-0724,0826,12221,027.9,045.5,0.455,746.1,01.17,0.508
2016-10-15 00:47:00,1480E-3,5C000000,-0724,0826,12257,027.9,045.5,0.455,746.1,01.17,0.508
2016-10-15 00:48:00,1586E-3,5C000000,-0724,0826,12120,027.9,045.5,0.455,746.1,01.17,0.508
2016-10-15 00:49:00,1586E-3,5C000000,-0724,0826,12213,027.9,045.5,0.455,746.1,01.17,0.508
2016-10-15 00:50:00,1509E-3,5C000000,-0724,0825,12206,027.9,045.5,0.455,746.1,01.17,0.508
2016-10-15 00:51:00,1510E-3,5C000000,-0724,0826,12226,027.9,045.5,0.455,746.1,01.17,0.508
2016-10-15 00:52:00,1475E-3,5C000000,-0724,0826,12398,027.9,045.5,0.456,746.1,01.17,0.508
2016-10-15 00:53:00,1665E-3,5C000000,-0724,0826,12191,027.9,045.5,0.455,746.1,01.17,0.508
2016-10-15 00:54:00,1683E-3,5C000000,-0724,0826,12231,027.9,045.5,0.455,746.1,01.17,0.508
2016-10-15 00:55:00,1470E-3,5C000000,-0724,0825,12139,027.9,045.5,0.455,746.1,01.17,0.508
2016-10-15 00:56:00,1550E-3,5C000000,-0724,0825,12307,027.9,045.5,0.455,746.1,01.17,0.508
2016-10-15 00:57:00,1502E-3,5C000000,-0724,0826,12423,027.9,045.5,0.455,746.1,01.17,0.508
2016-10-15 00:58:00,1705E-3,5C000000,-0724,0825,12164,027.9,045.5,0.455,746.1,01.17,0.508
2016-10-15 00:59:00,1547E-3,5C000000,-0724,0826,12296,027.9,045.5,0.455,746.1,01.17,0.508
2016-10-15 01:00:00,1630E-3,5C000000,-0724,0826,12334,027.9,045.5,0.455,746.1,01.17,0.508
2016-10-15 01:01:00,1544E-3,5C000000,-0724,0825,12186,027.9,045.5,0.455,746.1,01.17,0.508
2016-10-15 01:02:00,1547E-3,5C000000,-0724,0826,12200,027.9,045.4,0.455,746.1,01.17,0.508
2016-10-15 01:03:00,1623E-3,5C000000,-0724,0827,12004,027.9,045.5,0.455,746.1,01.17,0.508
2016-10-15 01:04:00,1526E-3,5C000000,-0724,0826,12206,027.9,045.5,0.456,746.1,01.17,0.508
2016-10-15 01:05:00,1524E-3,5C000000,-0724,0827,12295,027.9,045.5,0.455,746.1,01.17,0.508
2016-10-15 01:06:00,1548E-3,5C000000,-0724,0826,12220,027.9,045.5,0.455,746.1,01.17,0.508
2016-10-15 01:07:00,1657E-3,5C000000,-0724,0826,12240,027.9,045.5,0.455,746.1,01.17,0.508
2016-10-15 01:08:00,1575E-3,5C000000,-0724,0826,12269,027.9,045.5,0.455,746.1,01.17,0.508
2016-10-15 01:09:00,1564E-3,5C000000,-0724,0826,12274,027.9,045.5,0.455,746.1,01.17,0.508
2016-10-15 01:10:00,1622E-3,5C000000,-0724,0825,12139,027.9,045.5,0.455,746.1,01.17,0.508
2016-10-15 01:11:00,1628E-3,5C000000,-0724,0826,12297,027.9,045.5,0.455,746.1,01.17,0.508
2016-10-15 01:12:00,1554E-3,5C000000,-0724,0827,12162,027.9,045.5,0.455,746.1,01.17,0.508
2016-10-15 01:13:00,1597E-3,5C000000,-0724,0826,12135,027.9,045.5,0.455,746.1,01.17,0.508
2016-10-15 01:14:00,1587E-3,5C000000,-0724,0826,12017,027.9,045.5,0.455,746.1,01.17,0.508
2016-10-15 01:15:00,1593E-3,5C000000,-0724,0826,12288,027.9,045.5,0.455,746.1,01.17,0.508
2016-10-15 01:16:00,1708E-3,5C000000,-0724,0827,12169,027.9,045.5,0.455,746.1,01.17,0.508
2016-10-15 01:17:00,1509E-3,5C000000,-0724,0826,12345,027.9,045.5,0.455,746.1,01.17,0.508
2016-10-15 01:18:00,1522E-3,5C000000,-0724,0826,12232,027.9,045.5,0.455,746.1,01.17,0.508
2016-10-15 01:19:00,1619E-3,5C000000,-0724,0827,12131,027.9,045.5,0.455,746.1,01.17,0.508
2016-10-15 01:20:00,1571E-3,5C000000,-0724,0826,12324,027.9,045.5,0.455,746.1,01.17,0.508
2016-10-15 01:21:00,1648E-3,5C000000,-0724,0826,12032,027.9,045.5,0.455,746.1,01.17,0.508
2016-10-15 01:22:00,1490E-3,5C000000,-0724,0826,12320,027.9,045.5,0.455,746.1,01.17,0.508
2016-10-15 01:23:00,1716E-3,5C000000,-0724,0826,12310,028.0,045.5,0.456,746.1,01.17,0.508
2016-10-15 01:24:00,1684E-3,5C000000,-0724,0826,12141,027.9,045.5,0.455,746.1,01.17,0.508
2016-10-15 01:25:00,1643E-3,5C000000,-0724,0826,12307,027.9,045.5,0.455,746.1,01.17,0.508
2016-10-15 01:26:00,1511E-3,5C000000,-0724,0826,12239,027.9,045.5,0.455,746.1,01.17,0.508
2016-10-15 01:27:00,1752E-3,5C000000,-0724,0826,12271,027.9,045.5,0.455,746.1,01.17,0.508
2016-10-15 01:28:00,1616E-3,5C000000,-0724,0826,12161,027.9,045.5,0.455,746.1,01.17,0.508
2016-10-15 01:29:00,1550E-3,5C000000,-0724,0826,12161,027.9,045.5,0.455,746.1,01.17,0.508
2016-10-15 01:30:00,1603E-3,5C000000,-0724,0826,12383,027.9,045.5,0.456,746.1,01.17,0.508
2016-10-15 01:31:00,1513E-3,5C000000,-0724,0826,12195,027.9,045.5,0.455,746.1,01.17,0.508
2016-10-15 01:32:00,1645E-3,5C000000,-0724,0826,12399,028.0,045.4,0.455,746.1,01.17,0.508
2016-10-15 01:33:00,1682E-3,5C000000,-0724,0826,12247,028.0,045.4,0.455,746.1,01.17,0.508
2016-10-15 01:34:00,1536E-3,5C000000,-0724,0826,12192,028.0,045.5,0.455,746.1,01.17,0.508
2016-10-15 01:35:00,1657E-3,5C000000,-0724,0827,12177,027.9,045.5,0.455,746.1,01.17,0.508
2016-10-15 01:36:00,1605E-3,5C000000,-0724,0826,12261,028.0,045.5,0.455,746.1,01.17,0.508
2016-10-15 01:37:00,1641E-3,5C000000,-0724,0827,12373,028.0,045.5,0.455,746.2,01.17,0.508
2016-10-15 01:38:00,1591E-3,5C000000,-0724,0825,12141,028.0,045.5,0.455,746.1,01.17,0.508
2016-10-15 01:39:00,1462E-3,5C000000,-0724,0826,12292,028.0,045.5,0.455,746.2,01.17,0.508
2016-10-15 01:40:00,1673E-3,5C000000,-0724,0826,12249,028.0,045.5,0.455,746.2,01.17,0.508
2016-10-15 01:41:00,1527E-3,5C000000,-0724,0826,12232,028.0,045.5,0.455,746.2,01.17,0.508
2016-10-15 01:42:00,1638E-3,5C000000,-0724,0826,12180,028.0,045.5,0.455,746.2,01.17,0.508
2016-10-15 01:43:00,1505E-3,5C000000,-0724,0827,12305,028.0,045.5,0.455,746.2,01.17,0.508
2016-10-15 01:44:00,1668E-3,5C000000,-0724,0826,12223,028.0,045.5,0.455,746.2,01.17,0.508
2016-10-15 01:45:00,1389E-3,5C000000,-0724,0827,12189,028.0,045.5,0.455,746.2,01.17,0.508
2016-10-15 01:46:00,1702E-3,5C000000,-0724,0827,12212,028.0,045.5,0.455,746.2,01.17,0.508
2016-10-15 01:47:00,1593E-3,5C000000,-0724,0826,12208,028.0,045.5,0.455,746.2,01.17,0.508
2016-10-15 01:48:00,1597E-3,5C000000,-0724,0826,12191,028.0,045.5,0.455,746.2,01.17,0.508
2016-10-15 01:49:00,1607E-3,5C000000,-0724,0826,12412,028.0,045.5,0.455,746.2,01.17,0.508
2016-10-15 01:50:00,1661E-3,5C000000,-0724,0827,12209,028.0,045.5,0.455,746.2,01.17,0.508
2016-10-15 01:51:00,1611E-3,5C000000,-0724,0826,12329,028.0,045.5,0.455,746.2,01.17,0.508
2016-10-15 01:52:00,1463E-3,5C000000,-0724,0826,12249,028.0,045.5,0.455,746.2,01.17,0.508
2016-10-15 01:53:00,1715E-3,5C000000,-0724,0826,12187,028.0,045.5,0.455,746.2,01.17,0.508
2016-10-15 01:54:00,1540E-3,5C000000,-0724,0826,12282,028.0,045.5,0.455,746.2,01.17,0.508
2016-10-15 01:55:00,1566E-3,5C000000,-0724,0827,12257,028.0,045.5,0.455,746.2,01.17,0.508
2016-10-15 01:56:00,1641E-3,5C000000,-0724,0827,12084,028.0,045.5,0.455,746.2,01.17,0.508
2016-10-15 01:57:00,1650E-3,5C000000,-0724,0826,12246,028.0,045.5,0.455,746.2,01.17,0.508
2016-10-15 01:58:00,1568E-3,5C000000,-0724,0827,12042,028.0,045.5,0.455,746.2,01.17,0.508
2016-10-15 01:59:00,1489E-3,5C000000,-0724,0827,12229,028.0,045.5,0.455,746.2,01.17,0.508
2016-10-15 02:00:00,1499E-3,5C000000,-0724,0826,12257,028.0,045.5,0.455,746.2,01.17,0.508
2016-10-15 02:01:00,1613E-3,5C000000,-0724,0826,12213,028.0,045.5,0.455,746.2,01.17,0.508
2016-10-15 02:02:00,1587E-3,5C000000,-0724,0826,12243,028.0,045.5,0.455,746.2,01.17,0.508
2016-10-15 02:03:00,1679E-3,5C000000,-0724,0827,12248,028.0,045.5,0.455,746.2,01.17,0.508
2016-10-15 02:04:00,1473E-3,5C000000,-0724,0826,12321,028.0,045.5,0.455,746.2,01.17,0.508
2016-10-15 02:05:00,1614E-3,5C000000,-0724,0827,12167,028.0,045.5,0.455,746.2,01.17,0.508
2016-10-15 02:06:00,1440E-3,5C000000,-0724,0827,12021,028.0,045.5,0.455,746.2,01.17,0.508
2016-10-15 02:07:00,1627E-3,5C000000,-0724,0826,12198,028.0,045.5,0.455,746.2,01.17,0.508
2016-10-15 02:08:00,1509E-3,5C000000,-0724,0826,12359,028.0,045.5,0.455,746.2,01.17,0.508
2016-10-15 02:09:00,1616E-3,5C000000,-0724,0827,12173,028.0,045.5,0.455,746.2,01.17,0.508
2016-10-15 02:10:00,1593E-3,5C000000,-0724,0826,12430,028.0,045.5,0.455,746.2,01.17,0.508
2016-10-15 02:11:00,1541E-3,5C000000,-0724,0827,12283,028.0,045.5,0.455,746.2,01.17,0.508
2016-10-15 02:12:00,1510E-3,5C000000,-0724,0826,12234,028.0,045.5,0.455,746.2,01.17,0.508
2016-10-15 02:13:00,1675E-3,5C000000,-0724,0826,12259,028.0,045.5,0.455,746.2,01.17,0.508
2016-10-15 02:14:00,1504E-3,5C000000,-0724,0826,12269,028.0,045.5,0.455,746.2,01.17,0.508
2016-10-15 02:15:00,1664E-3,5C000000,-0724,0826,12318,028.0,045.5,0.455,746.2,01.17,0.508
2016-10-15 02:16:00,1628E-3,5C000000,-0724,0826,12280,028.0,045.5,0.455,746.2,01.17,0.508
2016-10-15 02:17:00,1580E-3,5C000000,-0724,0826,12145,028.0,045.5,0.455,746.2,01.17,0.508
2016-10-15 02:18:00,1452E-3,5C000000,-0724,0826,12126,028.0,045.5,0.455,746.2,01.17,0.508
2016-10-15 02:19:00,1546E-3,5C000000,-0724,0827,12219,028.0,045.4,0.455,746.2,01.17,0.508
2016-10-15 02:20:00,1584E-3,5C000000,-0724,0827,12228,028.0,045.5,0.455,746.2,01.17,0.508
2016-10-15 02:21:00,1527E-3,5C000000,-0724,0826,12297,028.0,045.5,0.455,746.2,01.17,0.508
2016-10-15 02:22:00,1537E-3,5C000000,-0724,0825,12299,028.0,045.5,0.455,746.2,01.17,0.508
2016-10-15 02:23:00,1558E-3,5C000000,-0724,0826,12213,028.0,045.5,0.455,746.1,01.17,0.508
2016-10-15 02:24:00,1569E-3,5C000000,-0724,0826,12195,028.0,045.5,0.455,746.1,01.17,0.508
2016-10-15 02:25:00,1611E-3,5C000000,-0724,0826,12170,028.0,045.5,0.454,746.1,01.17,0.508
2016-10-15 02:26:00,1554E-3,5C000000,-0724,0826,12071,028.0,045.5,0.455,746.2,01.17,0.508
2016-10-15 02:27:00,1550E-3,5C000000,-0724,0826,12269,028.0,045.5,0.455,746.2,01.17,0.508
2016-10-15 02:28:00,1549E-3,5C000000,-0724,0826,12355,028.0,045.5,0.455,746.1,01.17,0.508
2016-10-15 02:29:00,1615E-3,5C000000,-0724,0826,12273,028.0,045.5,0.455,746.1,01.17,0.508
2016-10-15 02:30:00,1579E-3,5C000000,-0724,0827,12291,028.1,045.5,0.455,746.1,01.17,0.508
2016-10-15 02:31:00,1509E-3,5C000000,-0724,0827,12154,028.1,045.5,0.455,746.1,01.17,0.508
2016-10-15 02:32:00,1568E-3,5C000000,-0724,0826,12254,028.0,045.5,0.455,746.1,01.17,0.508
2016-10-15 02:33:00,1652E-3,5C000000,-0724,0826,12226,028.1,045.5,0.455,746.1,01.17,0.508
2016-10-15 02:34:00,1714E-3,5C000000,-0724,0827,12271,028.1,045.5,0.455,746.1,01.17,0.508
2016-10-15 02:35:00,1591E-3,5C000000,-0724,0826,12195,028.1,045.5,0.455,746.1,01.17,0.508
2016-10-15 02:36:00,1586E-3,5C000000,-0724,0826,12207,028.1,045.5,0.455,746.1,01.17,0.508
2016-10-15 02:37:00,1526E-3,5C000000,-0724,0826,11936,028.1,045.5,0.455,746.1,01.17,0.508
2016-10-15 02:38:00,1552E-3,5C000000,-0724,0826,12232,028.1,045.5,0.455,746.1,01.17,0.508
2016-10-15 02:39:00,1708E-3,5C000000,-0724,0826,12238,028.1,045.5,0.455,746.1,01.17,0.508
2016-10-15 02:40:00,1727E-3,5C000000,-0724,0826,12156,028.1,045.5,0.455,746.1,01.17,0.508
2016-10-15 02:41:00,1587E-3,5C000000,-0724,0826,12155,028.1,045.5,0.455,746.1,01.17,0.508
2016-10-15 02:42:00,1687E-3,5C000000,-0724,0826,12174,028.1,045.5,0.455,746.2,01.17,0.508
2016-10-15 02:43:00,1608E-3,5C000000,-0724,0825,12151,028.1,045.5,0.455,746.2,01.17,0.508
2016-10-15 02:44:00,1635E-3,5C000000,-0724,0826,12272,028.1,045.5,0.455,746.2,01.17,0.508
2016-10-15 02:45:00,1671E-3,5C000000,-0724,0827,12241,028.1,045.5,0.455,746.2,01.17,0.508
2016-10-15 02:46:00,1650E-3,5C000000,-0724,0826,12171,028.1,045.5,0.454,746.2,01.17,0.508
2016-10-15 02:47:00,1565E-3,5C000000,-0724,0826,12214,028.1,045.5,0.455,746.2,01.17,0.508
2016-10-15 02:48:00,1600E-3,5C000000,-0724,0826,12092,028.1,045.5,0.455,746.2,01.17,0.508
2016-10-15 02:49:00,1661E-3,5C000000,-0724,0826,12264,028.1,045.5,0.455,746.2,01.17,0.508
2016-10-15 02:50:00,1676E-3,5C000000,-0724,0826,12042,028.1,045.5,0.455,746.2,01.17,0.508
2016-10-15 02:51:00,1663E-3,5C000000,-0724,0826,12246,028.1,045.5,0.455,746.2,01.17,0.508
2016-10-15 02:52:00,1603E-3,5C000000,-0724,0827,12226,028.1,045.5,0.455,746.2,01.17,0.508
2016-10-15 02:53:00,1546E-3,5C000000,-0724,0826,12164,028.1,045.5,0.455,746.2,01.17,0.508
2016-10-15 02:54:00,1742E-3,5C000000,-0724,0826,12217,028.1,045.5,0.455,746.2,01.17,0.508
2016-10-15 02:55:00,1611E-3,5C000000,-0724,0826,12206,028.1,045.5,0.455,746.2,01.17,0.508
2016-10-15 02:56:00,1613E-3,5C000000,-0724,0826,12155,028.2,045.5,0.455,746.2,01.17,0.508
2016-10-15 02:57:00,1674E-3,5C000000,-0724,0826,12179,028.2,045.5,0.454,746.2,01.17,0.508
2016-10-15 02:58:00,1437E-3,5C000000,-0724,0826,12306,028.2,045.5,0.455,746.2,01.17,0.508
2016-10-15 02:59:00,1553E-3,5C000000,-0724,0826,12235,028.2,045.5,0.454,746.2,01.17,0.508
2016-10-15 03:00:00,1502E-3,5C000000,-0724,0826,12268,028.2,045.5,0.455,746.2,01.17,0.508
2016-10-15 03:01:00,1355E-3,5C000000,-0724,0826,12252,028.2,045.5,0.455,746.2,01.17,0.508
2016-10-15 03:02:00,1466E-3,5C000000,-0724,0826,12329,028.2,045.5,0.455,746.2,01.17,0.508
2016-10-15 03:03:00,1647E-3,5C000000,-0724,0826,12231,028.2,045.5,0.455,746.2,01.17,0.508
2016-10-15 03:04:00,1463E-3,5C000000,-0724,0826,12350,028.2,045.5,0.455,746.2,01.17,0.508
2016-10-15 03:05:00,1556E-3,5C000000,-0724,0826,12260,028.2,045.5,0.455,746.2,01.17,0.508
2016-10-15 03:06:00,1652E-3,5C000000,-0724,0827,12318,028.2,045.5,0.454,746.2,01.17,0.508
2016-10-15 03:07:00,1633E-3,5C000000,-0724,0827,12128,028.2,045.5,0.455,746.1,01.17,0.508
2016-10-15 03:08:00,1566E-3,5C000000,-0724,0826,12169,028.2,045.5,0.454,746.2,01.17,0.508
2016-10-15 03:09:00,1518E-3,5C000000,-0724,0826,12075,028.2,045.5,0.455,746.2,01.17,0.508
2016-10-15 03:10:00,1573E-3,5C000000,-0724,0827,12196,028.2,045.5,0.454,746.2,01.17,0.508
2016-10-15 03:11:00,1514E-3,5C000000,-0724,0827,12057,028.2,045.5,0.455,746.2,01.17,0.508
2016-10-15 03:12:00,1469E-3,5C000000,-0724,0826,12268,028.3,045.5,0.455,746.2,01.17,0.508
2016-10-15 03:13:00,1681E-3,5C000000,-0724,0826,12176,028.3,045.5,0.455,746.2,01.17,0.508
2016-10-15 03:14:00,1525E-3,5C000000,-0724,0826,12046,028.3,045.5,0.455,746.2,01.17,0.508
2016-10-15 03:15:00,1664E-3,5C000000,-0724,0827,12221,028.3,045.5,0.454,746.2,01.17,0.508
2016-10-15 03:16:00,1520E-3,5C000000,-0724,0827,12261,028.3,045.5,0.455,746.2,01.17,0.508
2016-10-15 03:17:00,1482E-3,5C000000,-0724,0827,12055,028.3,045.5,0.454,746.2,01.17,0.508
2016-10-15 03:18:00,1566E-3,5C000000,-0724,0827,12240,028.3,045.5,0.455,746.2,01.17,0.508
2016-10-15 03:19:00,1654E-3,5C000000,-0724,0827,12287,028.3,045.5,0.454,746.2,01.17,0.508
2016-10-15 03:20:00,1583E-3,5C000000,-0724,0826,12248,028.3,045.5,0.455,746.2,01.17,0.508
2016-10-15 03:21:00,1615E-3,5C000000,-0724,0827,12185,028.3,045.5,0.454,746.2,01.17,0.508
2016-10-15 03:22:00,1551E-3,5C000000,-0724,0827,12305,028.3,045.5,0.455,746.2,01.17,0.508
2016-10-15 03:23:00,1540E-3,5C000000,-0724,0826,12227,028.3,045.5,0.454,746.2,01.17,0.508
2016-10-15 03:24:00,1525E-3,5C000000,-0724,0826,12430,028.3,045.5,0.455,746.2,01.17,0.508
2016-10-15 03:25:00,1741E-3,5C000000,-0724,0827,12311,028.3,045.5,0.454,746.2,01.17,0.508
2016-10-15 03:26:00,1569E-3,5C000000,-0724,0826,12198,028.3,045.5,0.455,746.2,01.17,0.508
2016-10-15 03:27:00,1726E-3,5C000000,-0724,0827,12106,028.3,045.5,0.455,746.2,01.17,0.508
2016-10-15 03:28:00,1844E-3,5C000000,-0724,0826,12300,028.3,045.5,0.455,746.2,01.17,0.508
2016-10-15 03:29:00,1617E-3,5C000000,-0724,0826,12109,028.3,045.5,0.455,746.2,01.17,0.508
2016-10-15 03:30:00,1491E-3,5C000000,-0724,0826,12240,028.4,045.5,0.454,746.2,01.17,0.508
2016-10-15 03:31:00,1650E-3,5C000000,-0724,0826,12239,028.3,045.5,0.455,746.2,01.17,0.508
2016-10-15 03:32:00,1637E-3,5C000000,-0724,0827,12334,028.4,045.5,0.454,746.2,01.17,0.508
2016-10-15 03:33:00,1497E-3,5C000000,-0724,0827,12348,028.4,045.5,0.455,746.2,01.17,0.508
2016-10-15 03:34:00,1729E-3,5C000000,-0724,0826,12245,028.4,045.5,0.454,746.2,01.17,0.508
2016-10-15 03:35:00,1583E-3,5C000000,-0724,0827,12144,028.4,045.5,0.455,746.2,01.17,0.508
2016-10-15 03:36:00,1638E-3,5C000000,-0724,0826,12273,028.4,045.5,0.454,746.2,01.17,0.508
2016-10-15 03:37:00,1683E-3,5C000000,-0724,0826,12124,028.4,045.5,0.455,746.2,01.17,0.508
2016-10-15 03:38:00,1743E-3,5C000000,-0724,0826,12175,028.4,045.5,0.454,746.2,01.17,0.508
2016-10-15 03:39:00,1826E-3,5C000000,-0724,0826,12213,028.4,045.5,0.455,746.2,01.17,0.508
2016-10-15 03:40:00,1851E-3,5C000000,-0724,0826,12372,028.4,045.5,0.454,746.2,01.17,0.508
2016-10-15 03:41:00,1761E-3,5C000000,-0724,0827,12330,028.4,045.5,0.455,746.2,01.17,0.508
2016-10-15 03:42:00,1720E-3,5C000000,-0724,0827,12195,028.4,045.5,0.454,746.1,01.17,0.508
2016-10-15 03:43:00,1775E-3,5C000000,-0724,0827,12189,028.4,045.5,0.455,746.2,01.17,0.508
2016-10-15 03:44:00,1643E-3,5C000000,-0724,0826,12137,028.4,045.5,0.454,746.2,01.17,0.508
2016-10-15 03:45:00,1727E-3,5C000000,-0724,0826,12200,028.4,045.5,0.455,746.2,01.17,0.508
2016-10-15 03:46:00,1759E-3,5C000000,-0724,0826,12273,028.4,045.5,0.454,746.2,01.17,0.508
2016-10-15 03:47:00,1829E-3,5C000000,-0724,0826,12251,028.4,045.5,0.454,746.2,01.17,0.508
2016-10-15 03:48:00,1867E-3,5C000000,-0724,0826,12286,028.4,045.5,0.454,746.2,01.17,0.508
2016-10-15 03:49:00,1857E-3,5C000000,-0724,0826,12204,028.4,045.5,0.454,746.2,01.17,0.508
2016-10-15 03:50:00,2019E-3,5C000000,-0724,0826,12191,028.4,045.5,0.454,746.2,01.17,0.508
2016-10-15 03:51:00,1881E-3,5C000000,-0724,0825,12166,028.4,045.5,0.454,746.2,01.17,0.508
2016-10-15 03:52:00,1720E-3,5C000000,-0724,0825,12153,028.4,045.5,0.454,746.2,01.17,0.508
2016-10-15 03:53:00,1747E-3,5C000000,-0724,0826,12181,028.4,045.5,0.454,746.2,01.17,0.508
2016-10-15 03:54:00,1672E-3,5C000000,-0724,0826,12298,028.4,045.5,0.455,746.2,01.17,0.508
2016-10-15 03:55:00,1750E-3,5C000000,-0724,0826,12240,028.4,045.5,0.454,746.2,01.17,0.508
2016-10-15 03:56:00,1716E-3,5C000000,-0724,0827,12106,028.5,045.5,0.454,746.2,01.17,0.508
2016-10-15 03:57:00,1745E-3,5C000000,-0724,0826,12218,028.4,045.5,0.454,746.2,01.17,0.508
2016-10-15 03:58:00,1771E-3,5C000000,-0724,0826,12183,028.4,045.5,0.454,746.2,01.17,0.508
2016-10-15 03:59:00,1689E-3,5C000000,-0724,0826,12269,028.5,045.5,0.454,746.2,01.17,0.508
2016-10-15 04:00:00,1760E-3,5C000000,-0724,0827,12297,028.5,045.5,0.455,746.2,01.17,0.508
2016-10-15 04:01:00,1748E-3,5C000000,-0724,0826,12309,028.5,045.5,0.454,746.2,01.17,0.508
2016-10-15 04:02:00,1807E-3,5C000000,-0724,0827,12230,028.5,045.5,0.455,746.2,01.17,0.508
2016-10-15 04:03:00,1733E-3,5C000000,-0724,0826,12176,028.5,045.5,0.454,746.2,01.17,0.508
2016-10-15 04:04:00,1750E-3,5C000000,-0724,0826,12160,028.5,045.5,0.455,746.2,01.17,0.508
2016-10-15 04:05:00,1587E-3,5C000000,-0724,0826,12315,028.5,045.5,0.454,746.2,01.17,0.508
2016-10-15 04:06:00,1780E-3,5C000000,-0724,0826,12296,028.5,045.5,0.455,746.2,01.17,0.508
2016-10-15 04:07:00,1825E-3,5C000000,-0724,0826,12154,028.5,045.5,0.454,746.2,01.17,0.508
2016-10-15 04:08:00,1672E-3,5C000000,-0724,0826,12221,028.5,045.5,0.455,746.2,01.17,0.508
2016-10-15 04:09:00,1669E-3,5C000000,-0724,0826,12221,028.5,045.5,0.454,746.2,01.17,0.508
2016-10-15 04:10:00,1602E-3,5C000000,-0724,0825,12301,028.5,045.5,0.455,746.2,01.17,0.508
2016-10-15 04:11:00,1752E-3,5C000000,-0724,0826,12057,028.5,045.5,0.454,746.2,01.17,0.508
2016-10-15 04:12:00,1738E-3,5C000000,-0724,0827,12231,028.5,045.5,0.455,746.1,01.17,0.508
2016-10-15 04:13:00,1748E-3,5C000000,-0724,0827,12257,028.5,045.5,0.454,746.1,01.17,0.508
2016-10-15 04:14:00,1672E-3,5C000000,-0724,0827,12183,028.5,045.5,0.455,746.1,01.17,0.508
2016-10-15 04:15:00,1865E-3,5C000000,-0724,0826,12200,028.5,045.5,0.454,746.1,01.17,0.508
2016-10-15 04:16:00,1922E-3,5C000000,-0724,0826,12129,028.5,045.5,0.455,746.1,01.17,0.508
2016-10-15 04:17:00,1733E-3,5C000000,-0724,0826,12140,028.5,045.5,0.454,746.1,01.17,0.508
2016-10-15 04:18:00,1707E-3,5C000000,-0724,0827,12333,028.5,045.5,0.454,746.2,01.17,0.508
2016-10-15 04:19:00,1782E-3,5C000000,-0724,0826,12155,028.5,045.5,0.454,746.1,01.17,0.508
2016-10-15 04:20:00,1772E-3,5C000000,-0724,0827,12060,028.5,045.5,0.454,746.2,01.17,0.508